Location: Poughquag
(41.6090°N, 73.6820°W)
Time: 09:22:44
(UTC-05:00)

DIWATA 2B (PO-101) - Pass Details

Date: 20 November 2025
Orbit: 563 x 574 km, 98.1° (Epoch: 07 December)

Event Time Altitude Azimuth Distance (km) Brightness Sun altitude
Rises 03:49:03 0° 115° (ESE) 2,762 ? -33.6°
Reaches altitude 10° 03:52:33 10° 82° (E) 1,868 ? -32.9°
Maximum altitude 03:53:55 12° 62° (ENE) 1,770 ? -32.7°
Drops below altitude 10° 03:55:17 10° 42° (NE) 1,871 ? -32.4°
Enters shadow 03:57:03 - 22° (NNE) 2,243 ? -32.1°
